[Iaude] MPEC C187: 2024 CW5 [a=2.96,e=0.61,i=14.2,H=19.8]

mpec at cfa.harvard.edu mpec at cfa.harvard.edu
Thu Feb 15 09:16:22 EST 2024


M.P.E.C. 2024-C187                            Issued 2024 February 15, 14:14 UT

     The Minor Planet Electronic Circulars contain information on unusual
         minor planets, routine data on comets and natural satellites,
         and occasional editorial announcements.  They are published
    on behalf of Division F of the International Astronomical Union by the
          Minor Planet Center, Smithsonian Astrophysical Observatory,
                          Cambridge, MA 02138, U.S.A.
			  
             Prepared using the Tamkin Foundation Computer Network

                              MPC at CFA.HARVARD.EDU
            URL https://www.minorplanetcenter.net/    ISSN 1523-6714

                                    2024 CW5                                    


Observations:
     K24C05W* C2024 02 07.45836311 55 00.793+26 52 23.79         21.82wXEC187F52
     K24C05W  C2024 02 07.46998711 54 59.809+26 52 27.16         22.06wXEC187F52
     K24C05W  C2024 02 07.48166011 54 58.838+26 52 30.36         21.99wXEC187F52
     K24C05W  C2024 02 07.49340311 54 57.837+26 52 33.42         21.92wXEC187F52
     K24C05W  C2024 02 07.55839911 54 52.326+26 52 51.37         21.76GVEC187F52
     K24C05W  C2024 02 07.55921811 54 52.262+26 52 51.45         21.45GVEC187F52
     K24C05W  C2024 02 11.59850511 49 07.915+27 09 23.01         21.78GVEC187F52
     K24C05W  C2024 02 11.61157711 49 06.705+27 09 25.71         21.76GVEC187F52
     K24C05W  C2024 02 11.62463611 49 05.501+27 09 28.00         21.70GVEC187F52
     K24C05W  C2024 02 11.63776111 49 04.283+27 09 31.01         21.94GVEC187F52
     K24C05W !C2024 02 13.17189 11 46 45.62 +27 14 50.8          21.2 GVEC187J04
     K24C05W !C2024 02 13.20006 11 46 42.94 +27 14 56.3          21.1 GVEC187J04

Observer details:
F52 Pan-STARRS 2, Haleakala.  Observers J. Herman, T. Lowe, P. Minguez, A.
    Schultz, I. Smith.  Measurers K. Chambers, T. de Boer, J. Fairlamb, H.
    Gao, M. Huber, C.-C. Lin, E. Magnier, Y. Ramanjooloo, R. Wainscoat, R.
    Weryk.  1.8-m Ritchey-Chretien + CCD.
J04 ESA Optical Ground Station, Tenerife.  Observers P. Ruiz, M. Micheli, F.
    Ocana, L. Conversi.  Measurers R. Kresken, M. Micheli, F. Ocana, A.
    Knofel, M. Busch, E. Schwab.  1.0-m f/4.4 reflector + CCD.

Orbital elements:
2024 CW5                                                 Earth MOID = 0.2040 AU
Epoch 2024 Mar. 31.0 TT = JDT 2460400.5                 MPC                     
M  33.56401              (2000.0)            P               Q                  
n   0.19319734     Peri.   34.67854     +0.45421583     -0.88303867             
a   2.9634797      Node    28.84221     +0.75196197     +0.30895889             
e   0.6092331      Incl.   14.16231     +0.47774593     +0.35325221             
P   5.10           H   19.82          G   0.15           U   8                  
Residuals in seconds of arc
240207 F52  0.1-  0.0     240207 F52  0.0   0.1+    240211 F52  0.1+  0.3-
240207 F52  0.2-  0.1+    240207 F52  0.1+  0.1-    240211 F52  0.1+  0.0
240207 F52  0.0   0.0     240211 F52  0.1-  0.2+    240213 J04  0.1-  0.1-
240207 F52  0.1-  0.2-    240211 F52  0.0   0.1+    240213 J04  0.1+  0.1+

Ephemeris:
2024 CW5                 a,e,i = 2.96, 0.61, 14                  q = 1.1580
Date    TT    R. A. (2000) Decl.     Delta      r    Elong.  Phase     V
2024 01 16    12 13 00.6 +25 00 14   0.9128  1.6384   119.5    31.5    22.0
...
2024 01 31    12 03 50.4 +26 15 32   0.9131  1.7519   134.7    23.6    22.0
...
2024 02 08    11 54 16.5 +26 54 48   0.9251  1.8131   143.1    19.1    21.9
...
2024 02 14    11 45 29.3 +27 17 29   0.9417  1.8592   149.0    15.9    21.9
2024 02 15    11 43 55.5 +27 20 26   0.9452  1.8669   150.0    15.3    21.9
2024 02 16    11 42 20.4 +27 23 07   0.9489  1.8745   150.9    14.9    21.9
...
2024 02 22    11 32 31.3 +27 32 53   0.9760  1.9206   155.6    12.3    21.9
...
2024 03 01    11 19 17.1 +27 27 34   1.0253  1.9818   158.8    10.4    22.0
...
2024 03 16    10 57 37.8 +26 22 01   1.1601  2.0958   153.0    12.4    22.5

A. U. Tomatic                (C) Copyright 2024 MPC           M.P.E.C. 2024-C187





More information about the Iaude mailing list